Flag for U.S.A. Weather past 2 weeks in Augusta, Maine, U.S.A.

Now
73 °F

Broken clouds.


Feels Like: 77 °F
Forecast: 60 / 74 °F
Wind: 7 mph from Northwest

Location: Augusta State Airport

Current Time: Jul 29, 2014 at 6:37:00 PM

Latest Report: Jul 29, 2014 at 5:53 PM


Visibility: 10 mi

Pressure: 29.87 "Hg

Humidity: 50%

Dew point: 53 °F

Location of AugustaLocation

Historic Weather in Augusta — Graph

°F

Augusta temperature yesterday

Maximum temperature yesterday: 71 °F (at 5:53 PM)
Minimum temperature yesterday: 62 °F (at 9:53 PM)
Average temperature yesterday: 66 °F

Past Weeks' High & Low Weather Summary

 TemperatureHumidityPressure
High86 °F (Jul 23, 11:53 AM)100% (Jul 15, 5:53 AM)30.29 "Hg (Jul 15, 5:53 AM)
Low56 °F (Jul 21, 4:53 AM)40% (Jul 18, 5:53 PM)29.46 "Hg (Jul 28, 9:53 PM)
Average68 °F80%29.92 "Hg
* Reported Jul 14 4:53 PM — Jul 29 4:53 PM, Augusta, Weather by CustomWeather, © 2014

Note: Actual official high and low records may vary slightly from our data, if they occured in-between our weather recording intervals... More about our weather records

Advertising

Augusta weather history for previous 24 hours

 ConditionsComfort  
Time TempWeatherWind HumidityBarometerVisibility
4:53 PM
Jul 29
74 °FScattered clouds.6 mph50%29.85 "Hg10 mi
3:53 PM73 °FPassing clouds.6 mph50%29.83 "Hg10 mi
2:53 PM73 °FPassing clouds.9 mph50%29.81 "Hg10 mi
1:53 PM73 °FPassing clouds.7 mph51%29.79 "Hg10 mi
12:53 PM72 °FSunny.8 mph55%29.77 "Hg10 mi
11:53 AM69 °FPartly sunny.12 mph61%29.76 "Hg10 mi
10:53 AM67 °FOvercast.10 mph63%29.75 "Hg10 mi
9:53 AM66 °FScattered clouds.9 mph70%29.71 "Hg10 mi
8:53 AM65 °FSunny.10 mph73%29.69 "Hg10 mi
7:53 AM64 °FPartly sunny.8 mph78%29.66 "Hg10 mi
6:53 AM62 °FSunny.6 mph83%29.63 "Hg10 mi
5:53 AM61 °FPassing clouds.8 mph87%29.59 "Hg10 mi
4:53 AM60 °FPassing clouds.5 mph90%29.57 "Hg10 mi
3:53 AM62 °FPartly cloudy.6 mph96%29.54 "Hg10 mi
2:53 AM61 °FFog.5 mph100%29.52 "Hg4 mi
1:58 AM61 °FFog.5 mph100%29.50 "Hg2 mi
1:02 AM62 °FPassing clouds.3 mph96%29.48 "Hg7 mi
12:53 AM62 °FPassing clouds.3 mph96%29.48 "Hg10 mi
12:03 AM63 °FLow clouds.3 mph97%29.49 "Hg10 mi
11:53 PM
Jul 28
63 °FOvercast.6 mph97%29.49 "Hg10 mi
11:04 PM62 °FPassing clouds.6 mph96%29.49 "Hg10 mi
10:53 PM62 °FPassing clouds.5 mph96%29.48 "Hg10 mi
9:53 PM62 °FPassing clouds.5 mph100%29.46 "Hg10 mi
8:59 PM64 °FStrong thunderstorms. Fog.10 mph90%29.51 "Hg1 mi
7:53 PM68 °FFog.8 mph96%29.49 "Hg5 mi
6:53 PM70 °FOvercast.10 mph90%29.49 "Hg10 mi
Weather by CustomWeather, © 2014

See weather overviewHow to use our weather pages